Time,TemperatureF,DewpointF,PressureIn,WindDirection,WindDirectionDegrees,WindSpeedMPH,WindSpeedGustMPH,Humidity,HourlyPrecipIn,Conditions,Clouds,dailyrainin,SoftwareType,DateUTC
2013-09-20 00:01:00,61.5,48.8,29.79,NNW,338,0.0,1.0,63,0.00,,,0.00,VWS V14.00,2013-09-20 04:01:00,
2013-09-20 00:06:00,61.5,48.8,29.79,NNW,338,0.0,1.0,63,0.00,,,0.00,VWS V14.00,2013-09-20 04:06:00,
2013-09-20 00:11:00,61.3,49.1,29.79,NNW,338,0.0,1.0,64,0.00,,,0.00,VWS V14.00,2013-09-20 04:11:00,
2013-09-20 00:16:00,61.3,49.1,29.79,NNW,338,0.0,1.0,64,0.00,,,0.00,VWS V14.00,2013-09-20 04:16:00,
2013-09-20 06:48:00,56.3,47.8,29.79,North,0,0.0,1.0,73,0.00,,,0.00,VWS V14.00,2013-09-20 10:48:00,
2013-09-20 06:53:00,56.3,47.8,29.79,North,0,0.0,1.0,73,0.00,,,0.00,VWS V14.00,2013-09-20 10:53:00,
2013-09-20 06:54:00,56.3,47.8,29.80,North,0,0.0,1.0,73,0.00,,,0.00,VWS V14.00,2013-09-20 10:54:00,
2013-09-20 06:55:00,56.3,47.8,29.80,North,0,0.0,1.0,73,0.00,,,0.00,VWS V14.00,2013-09-20 10:55:00,
2013-09-20 06:56:00,56.3,47.8,29.80,North,0,0.0,1.0,73,0.00,,,0.00,VWS V14.00,2013-09-20 10:56:00,
2013-09-20 06:57:00,56.3,47.8,29.80,North,0,0.0,1.0,73,0.00,,,0.00,VWS V14.00,2013-09-20 10:57:00,
2013-09-20 06:58:00,56.3,47.8,29.79,North,0,0.0,1.0,73,0.00,,,0.00,VWS V14.00,2013-09-20 10:58:00,
2013-09-20 06:59:00,56.3,47.8,29.80,North,0,0.0,1.0,73,0.00,,,0.00,VWS V14.00,2013-09-20 10:59:00,
2013-09-20 07:00:00,56.3,47.8,29.80,North,0,0.0,1.0,73,0.00,,,0.00,VWS V14.00,2013-09-20 11:00:00,
2013-09-20 07:01:00,56.3,47.8,29.80,North,0,0.0,1.0,73,0.00,,,0.00,VWS V14.00,2013-09-20 11:01:00,
2013-09-20 07:02:00,56.3,47.8,29.80,North,0,0.0,1.0,73,0.00,,,0.00,VWS V14.00,2013-09-20 11:02:00,
2013-09-20 07:03:00,56.5,47.9,29.79,North,0,0.0,1.0,73,0.00,,,0.00,VWS V14.00,2013-09-20 11:03:00,
2013-09-20 07:04:00,56.3,47.8,29.80,North,0,0.0,1.0,73,0.00,,,0.00,VWS V14.00,2013-09-20 11:04:00,
2013-09-20 07:05:00,56.3,47.8,29.80,North,0,0.0,1.0,73,0.00,,,0.00,VWS V14.00,2013-09-20 11:05:00,
2013-09-20 07:06:00,56.3,47.8,29.80,North,0,0.0,1.0,73,0.00,,,0.00,VWS V14.00,2013-09-20 11:06:00,
2013-09-20 07:07:00,56.3,47.8,29.80,North,0,0.0,1.0,73,0.00,,,0.00,VWS V14.00,2013-09-20 11:07:00,
2013-09-20 07:08:00,56.5,48.3,29.79,North,0,0.0,1.0,74,0.00,,,0.00,VWS V14.00,2013-09-20 11:08:00,
2013-09-20 07:09:00,56.5,47.9,29.80,North,0,0.0,1.0,73,0.00,,,0.00,VWS V14.00,2013-09-20 11:09:00,
2013-09-20 07:10:00,56.5,47.9,29.80,North,0,0.0,1.0,73,0.00,,,0.00,VWS V14.00,2013-09-20 11:10:00,
2013-09-20 07:11:00,56.5,47.9,29.80,North,0,0.0,1.0,73,0.00,,,0.00,VWS V14.00,2013-09-20 11:11:00,
2013-09-20 07:12:00,56.5,47.9,29.80,North,0,0.0,1.0,73,0.00,,,0.00,VWS V14.00,2013-09-20 11:12:00,
2013-09-20 07:13:00,56.5,48.3,29.79,North,0,0.0,1.0,74,0.00,,,0.00,VWS V14.00,2013-09-20 11:13:00,
2013-09-20 07:14:00,56.5,48.3,29.80,North,0,0.0,1.0,74,0.00,,,0.00,VWS V14.00,2013-09-20 11:14:00,
2013-09-20 07:15:00,56.5,48.3,29.80,North,0,0.0,1.0,74,0.00,,,0.00,VWS V14.00,2013-09-20 11:15:00,
2013-09-20 07:16:00,56.5,48.3,29.80,North,0,0.0,1.0,74,0.00,,,0.00,VWS V14.00,2013-09-20 11:16:00,
2013-09-20 07:17:00,56.5,48.3,29.80,North,0,0.0,1.0,74,0.00,,,0.00,VWS V14.00,2013-09-20 11:17:00,
2013-09-20 07:18:00,56.5,48.3,29.82,North,0,0.0,1.0,74,0.00,,,0.00,VWS V14.00,2013-09-20 11:18:00,
2013-09-20 07:19:00,56.5,48.3,29.80,North,0,0.0,1.0,74,0.00,,,0.00,VWS V14.00,2013-09-20 11:19:00,
2013-09-20 07:20:00,56.5,48.3,29.80,North,0,0.0,1.0,74,0.00,,,0.00,VWS V14.00,2013-09-20 11:20:00,
2013-09-20 07:21:00,56.5,48.3,29.80,North,0,0.0,1.0,74,0.00,,,0.00,VWS V14.00,2013-09-20 11:21:00,
2013-09-20 07:22:00,56.5,48.3,29.82,North,0,0.0,1.0,74,0.00,,,0.00,VWS V14.00,2013-09-20 11:22:00,
2013-09-20 07:23:00,56.5,48.3,29.82,North,0,0.0,1.0,74,0.00,,,0.00,VWS V14.00,2013-09-20 11:23:00,
2013-09-20 07:24:00,56.5,48.3,29.82,North,0,0.0,1.0,74,0.00,,,0.00,VWS V14.00,2013-09-20 11:24:00,
2013-09-20 07:25:00,56.5,48.3,29.82,North,0,0.0,1.0,74,0.00,,,0.00,VWS V14.00,2013-09-20 11:25:00,
2013-09-20 07:26:00,56.5,48.3,29.82,North,0,0.0,1.0,74,0.00,,,0.00,VWS V14.00,2013-09-20 11:26:00,
2013-09-20 07:27:00,56.5,48.3,29.82,North,0,0.0,1.0,74,0.00,,,0.00,VWS V14.00,2013-09-20 11:27:00,
2013-09-20 07:28:00,56.7,48.5,29.82,North,0,0.0,1.0,74,0.00,,,0.00,VWS V14.00,2013-09-20 11:28:00,
2013-09-20 07:29:00,56.5,48.3,29.82,North,0,0.0,1.0,74,0.00,,,0.00,VWS V14.00,2013-09-20 11:29:00,
2013-09-20 07:30:00,56.5,48.3,29.82,North,0,0.0,1.0,74,0.00,,,0.00,VWS V14.00,2013-09-20 11:30:00,
2013-09-20 07:31:00,56.7,48.5,29.82,North,0,0.0,1.0,74,0.00,,,0.00,VWS V14.00,2013-09-20 11:31:00,
2013-09-20 07:32:00,56.7,48.5,29.82,North,0,0.0,1.0,74,0.00,,,0.00,VWS V14.00,2013-09-20 11:32:00,
2013-09-20 07:33:00,56.8,48.7,29.82,NNE,22,0.0,1.0,74,0.00,,,0.00,VWS V14.00,2013-09-20 11:33:00,
2013-09-20 07:34:00,56.7,48.5,29.82,North,0,0.0,1.0,74,0.00,,,0.00,VWS V14.00,2013-09-20 11:34:00,
2013-09-20 07:35:00,56.7,48.5,29.82,North,0,0.0,1.0,74,0.00,,,0.00,VWS V14.00,2013-09-20 11:35:00,
2013-09-20 07:36:00,56.7,48.5,29.82,North,0,0.0,1.0,74,0.00,,,0.00,VWS V14.00,2013-09-20 11:36:00,
2013-09-20 07:37:00,56.7,48.5,29.82,North,0,0.0,1.0,74,0.00,,,0.00,VWS V14.00,2013-09-20 11:37:00,
2013-09-20 07:38:00,56.8,48.7,29.82,North,0,0.0,1.0,74,0.00,,,0.00,VWS V14.00,2013-09-20 11:38:00,
2013-09-20 07:39:00,56.8,48.7,29.82,North,0,0.0,1.0,74,0.00,,,0.00,VWS V14.00,2013-09-20 11:39:00,
2013-09-20 07:40:00,56.8,48.7,29.82,North,0,0.0,1.0,74,0.00,,,0.00,VWS V14.00,2013-09-20 11:40:00,
2013-09-20 07:41:00,56.8,48.7,29.82,North,0,0.0,1.0,74,0.00,,,0.00,VWS V14.00,2013-09-20 11:41:00,
2013-09-20 07:42:00,56.8,48.7,29.82,North,0,0.0,1.0,74,0.00,,,0.00,VWS V14.00,2013-09-20 11:42:00,
2013-09-20 07:43:00,57.2,49.0,29.82,NNW,338,0.0,1.0,74,0.00,,,0.00,VWS V14.00,2013-09-20 11:43:00,
2013-09-20 07:44:00,56.8,48.7,29.82,North,0,0.0,1.0,74,0.00,,,0.00,VWS V14.00,2013-09-20 11:44:00,
2013-09-20 07:45:00,56.8,48.7,29.82,North,0,0.0,1.0,74,0.00,,,0.00,VWS V14.00,2013-09-20 11:45:00,
2013-09-20 07:46:00,56.8,48.7,29.82,North,0,0.0,1.0,74,0.00,,,0.00,VWS V14.00,2013-09-20 11:46:00,
2013-09-20 07:47:00,57.0,48.8,29.82,North,0,0.0,1.0,74,0.00,,,0.00,VWS V14.00,2013-09-20 11:47:00,
2013-09-20 07:48:00,57.2,49.0,29.82,NNW,338,0.0,1.0,74,0.00,,,0.00,VWS V14.00,2013-09-20 11:48:00,
2013-09-20 07:49:00,57.2,49.0,29.82,NNW,338,0.0,1.0,74,0.00,,,0.00,VWS V14.00,2013-09-20 11:49:00,
2013-09-20 07:50:00,57.2,49.0,29.82,NNW,338,0.0,1.0,74,0.00,,,0.00,VWS V14.00,2013-09-20 11:50:00,
2013-09-20 07:51:00,57.2,49.0,29.82,NW,315,0.0,1.0,74,0.00,,,0.00,VWS V14.00,2013-09-20 11:51:00,
2013-09-20 07:52:00,57.2,49.0,29.82,NW,315,0.0,1.0,74,0.00,,,0.00,VWS V14.00,2013-09-20 11:52:00,
2013-09-20 08:37:00,59.4,50.7,29.80,NW,315,0.0,1.0,73,0.00,,,0.00,VWS V14.00,2013-09-20 12:37:00,
2013-09-20 08:38:00,59.4,50.7,29.79,NW,315,0.0,1.0,73,0.00,,,0.00,VWS V14.00,2013-09-20 12:38:00,
2013-09-20 08:39:00,59.4,50.7,29.80,NW,315,0.0,1.0,73,0.00,,,0.00,VWS V14.00,2013-09-20 12:39:00,
2013-09-20 08:40:00,59.4,50.7,29.80,WNW,292,0.0,1.0,73,0.00,,,0.00,VWS V14.00,2013-09-20 12:40:00,